CAPE
1722 1833 2518 2781 2768 2760 2608 2576 2573 2579 2656 2611 2460 2327 2234 2089 1926 1815 1773 1705 1635 1662 1699 1773 1755 1648 1692 1688 1620 1604 1589 1661 1580 1449 1366 1286 1196 1167 1059 959 564 351 370 366 339 259 275 257 227 266 274 317 300 420 466 710 800 958 868 1208 1204 1207 1270 1381 1528 1607 1589 1582 1522 1540 1506 1549 1331 1413 1462 1534 1485 1315 1173 966 1030 870 969 1333 1468
1692 2300 2513 2504 2641 2590 2606 2576 2616 2703 2726 2630 2443 2335 2194 2036 1927 1858 1788 1719 1682 1730 1781 1798 1741 1732 1723 1640 1575 1582 1625 1576 1532 1495 1433 1291 1186 1188 907 454 384 376 376 380 308 298 295 280 316 327 343 267 310 460 366 563 697 888 1070 1237 1251 1340 1429 1502 1491 1466 1495 1447 1364 1358 1365 1303 1380 1417 1388 1290 1208 1176 1114 924 1024 789 875 1144 1357
1675 2130 2598 2508 2663 2649 2588 2580 2666 2683 2672 2586 2435 2303 2190 2044 1954 1886 1821 1767 1781 1797 1839 1860 1769 1741 1716 1693 1656 1587 1715 1649 1500 1435 1430 1323 1207 1034 768 352 358 378 355 376 416 282 330 393 358 336 356 387 362 325 313 348 638 757 868 1197 1380 1406 1425 1442 1671 1717 1699 1693 1626 1472 1428 1316 1283 1294 1321 1239 1149 1061 944 930 996 1034 850 1056 1206
1710 2135 2379 2515 2645 2558 2566 2596 2605 2582 2426 2435 2387 2298 2139 2096 2024 1917 1870 1877 1863 1869 1966 1901 1800 1664 1670 1668 1615 1666 1750 1610 1519 1436 1349 1298 992 926 544 391 431 302 363 494 413 378 351 417 393 428 389 465 489 450 464 446 514 526 666 867 969 1191 1455 1351 1444 1757 1745 1966 1880 1189 1128 924 1084 1267 1288 1266 1167 1101 1063 795 853 915 1043 1315 1119
1564 1956 2270 2123 2472 2584 2522 2615 2603 2568 2440 2386 2344 2282 2239 2108 2022 2022 2011 1990 1986 1979 1910 1865 1740 1601 1602 1645 1626 1685 1705 1533 1552 1447 1358 1203 1162 925 504 371 298 538 600 551 356 282 538 563 489 602 355 423 437 424 509 422 421 432 495 563 632 650 719 1142 1425 1478 2137 2296 1623 1108 780 830 919 1196 1087 1068 939 774 815 878 650 652 721 914 1340
1564 1872 1972 1968 1972 2346 2518 2545 2547 2500 2350 2256 2211 2269 2260 2102 2073 2096 2076 2099 2011 1921 1928 1816 1754 1650 1624 1630 1571 1675 1718 1517 1604 1442 1254 1493 1437 1139 455 333 447 686 613 472 483 643 595 678 790 754 708 333 379 411 497 471 382 375 438 492 503 644 563 510 884 1203 1101 2128 2498 1676 828 818 817 979 1109 924 861 843 670 566 559 572 600 593 998
1557 1592 1879 1841 1797 2456 2427 2497 2492 2394 2266 2319 2326 2264 2247 2201 2147 2084 2129 2067 2008 1919 1823 1750 1669 1588 1524 1586 1552 1644 1570 1414 1632 1657 1674 1594 1575 1193 584 564 730 799 450 562 774 700 774 968 920 988 1034 819 416 468 550 522 447 361 317 337 420 343 578 564 434 884 1175 1112 1090 1535 712 598 587 724 1080 1008 844 697 641 630 609 588 482 477 424
932 1239 1491 1629 1748 2392 2430 2412 2405 2363 2356 2439 2368 2324 2252 2242 2159 2160 2117 2049 1974 1863 1701 1556 1547 1485 1492 1460 1553 1496 1419 1393 1557 1635 1607 1497 1490 1363 1012 755 830 585 627 837 852 798 981 1093 1198 1229 1201 1237 1039 532 497 519 386 331 364 343 429 623 490 999 964 912 1384 658 757 211 187 321 410 505 889 914 758 698 700 668 572 440 517 419 351
958 982 1333 1540 1845 2354 2348 2297 2319 2382 2483 2405 2347 2299 2279 2220 2181 2174 2173 2041 1942 1843 1708 1634 1593 1552 1568 1570 1445 1386 1354 1419 1532 1633 1830 1549 1154 1400 1275 952 882 786 1137 1086 920 1382 1177 1264 1250 1183 1116 1051 1101 864 560 446 438 339 323 343 439 622 862 944 1208 1705 1333 387 328 329 294 253 250 332 579 644 683 666 548 427 415 445 409 384 378
937 1021 1176 1548 1750 2400 2269 2229 2273 2428 2456 2418 2383 2341 2296 2285 2200 2117 2145 2018 1928 1828 1767 1666 1610 1548 1472 1570 1501 1428 1350 1318 1662 1637 1484 1401 1419 1509 1492 1223 1031 941 912 992 1110 1262 1392 1266 1133 1066 1179 1108 1038 1048 738 434 363 402 413 364 576 688 839 873 1249 606 243 164 316 330 490 182 70 134 233 511 641 478 275 204 210 293 332 370 328
888 934 1345 1327 1890 2229 2153 2211 2403 2465 2423 2446 2342 2327 2274 2230 2044 2032 2054 2113 2076 1905 1912 1826 1666 1618 1508 1579 1514 1513 1440 1636 1941 1614 1417 1272 1467 1402 1231 1247 1148 1111 1300 1385 1417 1374 1207 1326 1268 1122 1266 1248 1021 1068 998 831 504 454 275 328 683 326 624 743 1130 368 0 106 122 223 302 228 40 58 418 444 484 362 317 284 273 226 236 282 255
979 1160 1482 1591 2240 2095 2129 2261 2392 2386 2376 2383 2243 2174 2203 2144 2024 1998 2113 2166 2046 1918 1927 1921 1837 1725 1600 1608 1500 1590 1786 1934 1993 1805 1318 1388 1337 1303 1378 1346 1310 1428 1467 1464 1398 1377 1448 1282 1155 1117 1121 1086 1180 1085 1012 964 864 648 718 360 640 661 747 587 880 677 356 216 50 4 0 2 40 346 404 410 198 127 153 176 194 180 156 176 166
1051 1362 1770 1847 1753 2088 2159 2282 2395 2435 2396 2343 2230 2171 2212 2148 2005 1972 2044 2043 1999 1974 1982 1958 1924 1956 1870 1720 1656 1699 1752 1921 2062 1899 1617 1506 1427 1568 1545 1515 1593 1603 1547 1507 1530 1355 1211 1218 1128 1048 1124 1091 1185 1214 1212 1300 1033 862 920 930 839 867 687 636 669 522 341 238 242 184 130 143 376 399 289 200 199 182 187 175 188 207 202 194 182
1146 1946 1627 1133 1824 2153 2130 2237 2292 2360 2350 2289 2212 2164 2131 2079 2095 2099 2015 2042 2046 2091 2016 1969 2008 1965 1773 1689 1677 1561 1674 1846 1874 1977 1989 1860 1806 1750 1710 1675 1634 1642 1684 1539 1336 1182 1157 1143 1180 1124 1050 1066 1075 1158 1324 1431 1206 1058 1126 1031 942 675 786 831 686 394 395 230 331 137 103 128 149 399 320 338 263 177 128 129 159 157 161 167 166
1565 1754 1430 1192 1437 1947 2183 2212 2264 2181 2203 2116 2109 2139 2118 2157 2165 2128 2130 2148 2159 2112 2076 1894 1926 1798 1671 1684 1599 1563 1498 1741 1979 1886 1869 1979 1967 1862 1750 1655 1628 1683 1570 1331 1164 1250 1303 1250 1214 1098 1044 1080 1090 1179 1270 1282 1330 1130 1149 1081 996 767 784 885 594 599 347 225 162 100 86 122 520 416 248 352 297 278 253 265 214 204 185 154 291
1672 1438 1120 816 1079 1611 1832 2203 2137 2101 2124 2087 2170 2148 2160 2214 2198 2189 2171 2173 2124 2018 1900 1941 1933 1808 1731 1632 1606 1330 1526 1846 2022 1958 1908 1902 1908 1832 1708 1575 1520 1525 1354 1210 1211 1298 1354 1339 1192 1199 1130 1161 1220 1186 1157 1219 1275 1148 1007 1071 588 844 1057 1403 1133 475 203 268 126 87 51 115 122 150 294 466 395 338 307 263 241 203 184 144 119
1732 1385 1144 905 887 1192 1392 1781 1926 2157 2100 2133 2143 2139 2148 2125 2143 2128 2154 2153 2137 2019 1996 1980 1912 1823 1717 1627 1590 1596 1675 1897 1900 1962 1954 1916 1801 1602 1577 1514 1465 1344 1214 1175 1268 1338 1293 1184 1183 1185 1167 1172 1205 1221 1260 1254 1329 930 980 721 1144 1003 1538 1850 786 622 521 382 268 149 93 153 392 374 282 259 272 264 239 246 271 254 237 228 195
1775 1359 920 916 940 855 1080 1539 1805 1664 1881 1906 2044 1953 2118 2095 2072 2132 2142 2056 2021 1979 1990 1912 1877 1843 1865 1778 1695 1644 1814 1832 1867 1951 1925 1874 1689 1525 1490 1454 1387 1260 1143 1179 1208 1126 1225 1303 1233 1145 1078 1188 1216 1249 1334 1270 1249 1143 1130 1146 1359 1501 1596 2029 706 702 746 640 310 214 79 102 202 221 191 272 302 310 275 242 216 217 188 191 152
1488 1311 986 1009 894 868 1014 1397 1304 1314 1696 1693 1638 2037 1908 1982 2077 2106 2127 2055 1974 1935 1813 1900 1905 1828 1892 1779 1778 1698 1706 1793 1715 1756 1849 1691 1610 1536 1477 1412 1368 1174 1125 1214 1111 1136 1019 1136 1298 1181 1144 1195 1269 1356 1184 1222 1203 1021 1110 1417 1464 1705 1958 1243 873 697 559 515 192 153 166 276 442 279 204 238 340 387 344 187 129 134 128 149 164
1415 1274 1052 898 849 724 847 1048 950 1233 1501 1626 1867 1748 2115 2162 2147 2076 2043 2010 1973 1983 1918 1992 1978 1908 1817 1769 1646 1638 1657 1628 1605 1642 1727 1693 1647 1487 1521 1436 1201 1130 1149 1145 1141 867 871 932 1127 1241 1241 1260 1296 1260 1200 982 1208 1049 1162 1453 1483 1604 1016 1315 761 730 717 455 229 104 219 328 296 291 223 218 301 305 141 87 297 261 235 246 204
1903 1327 1079 879 1405 1368 1224 1082 1090 1311 1358 1368 1759 1751 2030 2002 2067 2071 2016 1960 1964 1906 1906 1955 1954 1913 1802 1770 1636 1468 1470 1495 1499 1490 1662 1563 1490 1525 1347 1373 1244 1175 1159 1156 874 736 740 631 798 1213 1324 1385 1303 1174 1090 1149 890 1202 1301 1354 1576 949 1339 572 642 541 296 237 258 209 366 360 322 333 289 218 174 178 65 84 131 153 88 143 138
1989 1831 1115 919 918 800 1486 1079 1176 1179 804 900 915 1430 1786 1652 1870 1938 1873 1971 1896 1699 1940 1786 1821 1825 1727 1763 1610 1448 1388 1586 1507 1408 1439 1390 1488 1471 1389 1217 1075 1172 1113 947 771 674 546 749 655 863 1275 1213 1229 1037 1021 1136 1129 1196 1387 1592 1314 1342 1711 624 617 554 354 243 309 356 276 170 180 185 209 254 270 240 182 132 108 91 86 69 82
1612 1688 1370 958 933 1032 1271 1337 777 713 654 686 796 1508 1517 1493 1794 1762 1561 1732 1642 1620 1745 1642 1430 1573 1583 1523 1701 1587 1460 1529 1327 1354 1245 1322 1422 1440 1293 1147 1065 943 1020 839 678 623 643 439 797 853 1077 1222 1005 1220 1044 968 927 1118 1364 991 1290 1704 1156 1031 506 455 477 246 149 219 237 370 297 279 226 206 120 121 102 105 88 112 138 119 70
1765 1174 1125 962 1159 977 1058 1141 898 900 689 889 1067 1329 1248 1010 1495 1443 1708 1722 1841 1510 1333 1324 1231 1275 1284 1502 1982 1642 1858 1948 1207 872 1308 1254 1465 1431 1279 1070 962 972 947 630 718 582 580 600 512 711 614 762 877 1240 1323 1310 1026 1282 1110 1301 1567 934 849 948 404 501 466 252 199 562 311 255 228 214 215 167 248 245 262 206 163 110 66 60 60
1347 1261 1258 1026 1239 1215 1270 1115 1253 1083 929 867 1087 1069 951 851 970 1108 1468 1219 1487 1234 1198 1143 1227 1488 1571 1926 1668 1430 1712 1422 1408 1290 1034 1209 1161 1137 1065 955 926 900 856 410 296 311 499 225 178 168 230 406 655 895 877 1319 1666 1305 1367 1591 1769 1008 825 454 591 512 364 317 426 728 286 207 193 226 221 180 221 168 151 180 79 59 58 80 74
1556 1599 1531 1179 1358 1393 1272 1262 1262 1210 1309 854 1056 1154 1140 896 767 721 829 953 1018 1239 1636 1521 1354 1689 1715 1842 1666 1870 1927 1227 1296 1277 1270 1197 1070 1016 956 969 815 896 676 447 202 218 165 167 103 122 163 466 534 705 561 1089 1242 1305 1216 1731 1397 508 395 597 770 566 350 280 427 353 391 262 283 291 254 209 190 193 223 163 92 73 72 71 72
1896 1528 1404 1239 1270 1483 1383 1334 1348 1330 1142 1129 1351 1352 1319 967 805 739 952 833 1340 1572 1629 1393 1570 1587 1464 1488 1580 1528 1648 1595 1075 945 1334 1373 1178 1208 1146 1056 978 932 568 530 258 199 102 257 290 247 221 455 351 505 709 809 741 855 1403 1539 764 492 384 1044 1546 532 370 200 423 564 443 332 317 336 252 198 220 173 119 112 64 55 85 86 60
1534 1872 1505 1289 1358 1436 1419 1297 1297 1452 1563 1819 1888 1436 1083 891 566 906 1352 1716 1307 1169 1246 1101 925 1474 1356 1225 1455 1352 1367 1093 1356 895 1204 1076 1001 934 958 826 602 771 764 1054 347 260 183 405 271 184 218 362 353 461 402 413 467 580 1582 733 626 693 981 1507 1832 642 445 315 345 542 676 748 572 298 281 262 208 206 170 156 142 95 49 39 27
2179 2015 1408 1250 1374 1474 1466 1468 1398 1371 1472 1689 1882 1505 1330 1237 1285 1201 1596 1531 1325 1162 1337 1149 1118 1266 1154 983 1080 941 775 1087 774 1177 821 820 639 750 636 614 513 553 896 880 308 430 381 476 396 385 389 613 388 478 305 349 330 1482 1180 352 444 810 769 1536 1556 922 539 582 608 823 941 848 536 320 212 205 206 176 186 142 93 112 79 61 44
2066 1894 1710 1407 1338 1527 1471 1301 1432 1465 1314 1526 1519 1445 1405 1150 917 900 1480 1731 1496 1600 1144 1321 1278 980 1021 856 856 962 778 761 1012 1035 1315 1720 968 1093 557 670 370 835 812 621 557 680 708 604 766 528 262 383 580 578 321 295 220 360 710 523 677 984 1051 1156 1778 1068 760 817 809 1008 990 1069 621 393 383 274 230 164 160 165 162 83 43 36 25
2203 1884 1632 1505 1482 1683 1550 1417 1366 1213 1286 1439 1338 1086 1396 1186 1165 897 1249 1250 1387 1420 1289 1354 1198 1082 1011 843 840 815 567 642 720 806 689 573 802 1016 830 742 963 934 981 983 836 818 945 1108 1063 1345 971 567 1044 1379 651 1249 804 131 393 544 630 488 746 1079 1537 1473 965 722 863 965 1105 666 409 494 451 444 288 203 243 180 73 31 31 36 19
2006 1756 1562 1381 1130 1428 1379 1401 1344 1298 1457 1442 1196 1426 1599 1238 1305 1346 1299 1470 1377 1322 1344 1395 1347 1120 938 903 945 753 696 674 565 712 535 411 329 1152 1344 1200 1180 1222 1214 1142 1034 1112 1183 1114 1518 1637 1700 2233 1150 1199 890 1711 976 238 714 521 561 688 1035 981 1256 2060 976 760 811 839 848 828 672 482 362 477 419 332 237 188 138 191 154 118 85
1834 1796 1891 1419 1430 1280 1296 1539 1614 1437 1715 1688 1541 1721 1496 1047 955 1352 1432 1551 1453 1439 1352 1330 1210 834 875 671 736 815 744 609 635 657 370 304 460 1171 1149 1377 1467 1422 1466 1443 1436 1408 1777 1810 1802 1602 1788 2083 1676 1026 1063 1099 554 219 425 645 595 806 1114 977 1260 1598 1226 809 779 770 727 590 572 700 634 407 628 451 231 189 289 270 272 201 221
1784 1642 1734 1470 1473 1456 1516 1778 1915 1724 1888 1766 1698 1675 1482 931 904 1198 1556 1502 1450 1369 1194 1088 1101 850 833 777 662 920 936 866 867 572 502 419 408 718 634 562 688 840 1114 1832 1507 1742 1603 1336 1283 986 1258 1075 1213 1321 1143 1219 280 175 471 664 720 723 974 1312 1234 1340 1297 957 809 653 588 552 665 570 654 704 801 776 518 432 403 407 297 363 252
1257 1903 1829 1506 1266 1088 1109 1278 1853 1809 1468 1785 1555 1231 1684 1073 1271 1415 1545 1436 1249 1239 1033 961 1102 1009 733 694 715 571 821 816 688 447 570 483 514 803 564 679 809 1078 1467 1851 2126 1494 1294 1324 1021 729 1029 1312 1446 1076 837 825 382 384 337 499 633 842 1123 1132 1019 1022 1183 1255 929 711 949 830 1019 1197 834 770 997 816 825 547 557 449 534 590 549
1576 1940 1710 1415 1197 982 1025 1346 1862 1507 1450 1459 1273 1258 954 1445 1238 1204 1303 1221 1097 1004 940 968 956 840 760 798 699 722 781 677 719 566 553 1023 840 1333 908 1015 1622 1792 1931 2133 2086 1704 1240 1634 1283 1870 1461 1207 1144 1000 812 762 380 460 403 526 650 653 1041 1322 1026 970 952 1003 864 915 854 834 684 602 1115 485 541 701 621 597 650 462 519 542 509
1773 1451 1318 1286 940 1112 1055 1487 1563 1361 1540 1333 1133 1307 1463 1430 1198 1136 882 821 657 666 751 702 982 754 760 614 589 761 823 672 692 561 835 1222 1364 1174 1458 1089 1131 1428 1558 1715 1803 1384 1502 1820 2144 1578 1255 1005 753 575 456 964 651 535 537 390 719 931 1125 956 962 1066 1118 1184 1022 1017 743 522 751 737 1111 465 438 513 735 725 635 676 561 514 487
1653 1548 1632 1368 1132 1263 1375 1471 1593 1361 1390 1278 1260 1509 1529 1505 1036 1074 813 716 878 716 859 764 740 1009 1019 762 719 702 632 545 670 788 928 1345 1452 1201 878 1153 1280 1542 1124 1160 1404 1168 1569 1767 1707 1630 1331 1673 1179 645 800 1001 602 521 720 716 747 986 1168 1010 1019 983 922 1136 1151 689 658 432 692 575 683 961 344 422 562 716 815 749 664 642 445
1783 1660 1826 1742 1492 1352 1447 1895 1839 1409 1343 1310 1153 1250 1148 1328 1158 826 727 728 654 791 996 778 833 972 899 732 732 645 662 617 615 916 1123 1159 1307 1161 1114 844 1295 1204 1131 1187 1428 1344 1770 1805 1797 1549 1533 1053 1333 1351 1261 974 649 587 656 726 762 922 965 1229 1137 859 801 766 1107 848 682 692 800 794 751 579 605 400 447 621 640 607 685 600 646
2047 1932 1818 1595 1581 1708 1903 1966 1774 1496 1521 1253 1116 1119 1158 1399 1028 571 631 893 761 690 929 1076 1180 1070 975 855 867 1096 597 538 669 692 1120 1354 1128 879 932 1049 992 969 957 1170 774 1684 1738 1747 1358 1304 1318 1040 1131 1325 832 1077 922 644 440 365 532 840 969 1010 901 877 720 617 594 997 820 880 945 666 683 735 468 671 546 520 751 350 661 826 875
2125 1998 1775 1739 1808 1652 1877 1740 1695 1714 1492 1111 1020 856 847 923 1010 428 405 579 927 875 876 748 930 1297 746 572 705 616 570 548 797 570 882 1575 1177 813 1083 1394 1115 1057 1208 1307 1747 1374 1654 1646 1288 1660 1233 1043 908 1140 1325 967 830 657 672 842 817 810 768 1005 1132 981 839 509 461 564 547 810 699 690 985 670 662 454 391 501 661 823 682 531 487
2194 2134 1913 1823 1843 1821 1763 1734 1516 1424 1314 1124 1038 882 759 770 750 701 510 738 647 901 955 970 1274 1032 690 991 980 741 538 709 785 699 901 1385 1249 1034 1497 1735 1228 1199 822 1693 1718 1613 1665 1730 1379 1178 1094 960 1268 1222 1052 938 838 530 542 593 614 558 746 719 890 949 904 441 250 520 708 554 476 468 468 435 484 567 368 538 857 938 738 692 473
2238 2197 2234 2112 1949 1886 1909 1630 1492 1396 1264 1093 1018 881 766 594 583 278 793 643 849 850 606 825 934 1029 1369 1324 1181 712 871 637 552 736 844 1274 1643 1638 1554 1831 1437 1462 1917 1659 1670 1595 1680 1620 1562 1348 946 1021 948 1364 1465 1196 638 705 816 480 302 446 376 406 528 778 847 412 462 656 767 369 398 517 434 444 464 428 413 282 260 545 659 804 568
2408 2270 2426 2370 2232 2031 1740 1429 1481 1612 1497 1388 1357 1239 945 571 467 751 974 1093 950 805 804 828 1296 1150 1296 914 801 640 734 642 664 777 968 710 1008 1455 1324 1233 1548 1691 1689 1485 1587 1557 1737 1560 1550 1340 1155 796 760 1137 1380 1095 803 569 485 529 532 569 544 461 414 359 626 506 745 658 685 333 324 593 457 570 568 422 365 346 440 525 532 577 781
2362 2177 2271 2234 2184 1946 1529 1536 1690 1949 1930 1626 1531 1113 979 736 712 907 686 632 945 1006 854 951 1164 1097 1192 870 985 743 829 768 642 503 444 902 1131 1524 1795 1692 1625 1654 1540 1400 1299 1279 1366 1321 1460 1295 1176 1346 1006 1153 1293 1349 1042 956 683 328 269 286 367 453 386 281 312 249 336 592 468 317 375 431 241 336 898 388 412 554 776 482 353 380 423
1973 2121 2332 2058 1678 1525 1586 1846 1852 1784 1464 1300 1219 1066 791 831 1026 1042 810 787 910 811 690 678 836 1017 1233 1035 1120 684 888 846 969 809 449 1119 1519 1819 1636 1550 1526 1711 1543 1256 1342 1104 1224 994 1345 1198 1234 1096 1123 952 990 1132 1226 1021 898 1240 1573 599 394 396 475 180 222 311 361 546 505 375 477 491 461 626 729 691 682 840 516 678 539 426 593
1775 2027 2009 1167 1325 1493 1758 1693 1619 1486 1399 1248 1094 975 889 979 1022 1108 1320 778 736 1156 1408 1198 1135 1060 1233 1031 737 596 628 576 1031 904 1344 1637 1169 1356 1650 1332 1573 1600 1243 1315 1242 1243 1003 861 959 1000 1163 1173 1013 854 862 1150 1116 1168 1171 1172 959 904 712 283 313 345 310 328 506 307 482 403 283 576 596 650 743 670 594 598 698 351 652 568 396
1636 1887 1190 935 1049 1290 1391 1544 1495 1366 1342 1328 1137 1020 965 837 745 951 976 1134 621 775 986 1244 1329 940 816 785 589 491 455 506 1176 950 1261 1464 1859 1695 1400 1704 1326 1178 1106 1186 1257 1186 1147 811 1024 1056 1255 1135 1326 1230 846 442 868 1035 1036 839 1054 997 949 509 478 697 345 260 315 439 349 258 274 289 379 395 476 570 557 504 470 313 175 485 729
1747 1207 792 564 680 923 973 1266 1233 1316 1122 1389 1094 1033 1026 834 705 639 584 722 949 1164 1171 1042 572 826 1017 768 698 517 606 834 977 954 920 1018 1210 1479 1623 1692 1525 1156 895 1032 1039 1142 1181 1160 1263 1439 1372 1471 1492 1394 1256 1007 1006 980 1211 1092 956 1152 966 594 346 482 368 320 323 299 245 254 247 260 374 416 315 498 450 508 193 197 198 225 64
1507 1024 635 1032 1390 1240 1389 1408 1426 1242 1190 1106 1089 1054 904 786 700 706 603 524 905 1172 1170 877 782 1131 1294 1166 1076 1029 990 1165 1194 930 917 698 811 942 1051 1247 1454 1283 937 992 888 1049 1330 1364 1367 1461 1518 1282 1233 1370 1292 1064 984 1049 931 1582 1126 941 831 580 931 865 383 550 316 242 247 244 262 305 445 378 343 303 314 249 94 154 213 76 10
1789 903 1044 1580 1469 1641 1509 1452 1402 1013 933 916 916 1026 929 1034 1022 714 570 769 1120 1141 1282 1332 1405 1551 1311 1150 1272 1407 1070 1152 1181 1289 985 658 962 758 926 972 1169 1035 876 1142 1336 1162 1454 1495 1355 1449 1595 1146 978 1086 1282 1264 1187 1265 1112 1338 1314 818 313 296 884 668 720 426 253 387 244 245 190 233 322 280 167 177 110 147 77 169 37 0 0
Wind_Speed
30 32 31 32 29 29 30 31 32 33 34 36 37 38 39 40 40 39 39 39 39 39 37 36 34 34 32 32 31 30 29 28 28 28 27 27 27 27 27 26 25 24 24 23 23 22 21 21 20 19 18 17 18 18 19 19 18 18 17 15 15 14 13 14 15 15 15 14 14 15 14 13 13 15 15 16 16 17 14 14 15 10 7 10 17
32 30 29 30 30 29 29 31 32 33 34 35 36 37 38 40 40 39 40 40 40 39 38 36 34 34 32 31 31 31 29 28 28 28 27 27 27 27 27 26 25 25 24 23 22 22 22 21 20 19 18 17 18 17 17 17 17 16 15 14 13 13 13 13 13 13 14 14 15 15 15 14 14 15 15 16 17 17 16 15 17 8 6 15 16
33 30 28 31 30 29 29 30 32 33 34 35 36 37 38 39 40 40 41 40 40 39 38 36 35 34 32 32 32 31 29 28 28 28 28 28 27 27 27 26 26 25 24 23 22 23 22 22 21 19 18 17 17 17 17 17 14 15 13 10 10 9 9 9 11 12 13 16 16 16 16 15 14 14 14 15 16 16 16 15 15 13 10 17 16
33 27 28 31 31 29 29 30 31 33 34 34 36 38 38 39 41 41 42 41 40 39 38 37 35 34 33 32 32 31 29 29 29 29 28 27 27 27 27 26 27 25 24 22 22 22 21 22 22 20 18 17 17 17 16 16 13 10 10 9 8 7 6 7 7 9 11 14 13 10 6 7 9 14 14 14 15 15 15 15 15 14 17 17 18
32 28 28 28 28 27 29 30 32 33 34 35 36 38 39 40 41 41 42 40 39 38 38 36 35 35 33 31 31 30 29 29 29 29 27 27 26 27 27 26 26 25 24 22 22 22 21 21 21 20 18 17 17 17 16 15 13 9 8 8 6 5 4 5 4 7 10 10 11 9 8 8 7 12 12 13 14 14 14 15 15 15 15 18 18
29 27 26 25 26 26 29 31 33 34 34 35 38 38 39 41 42 42 42 40 38 38 37 36 35 35 33 30 29 29 29 28 27 28 28 26 25 27 27 26 26 25 24 22 21 21 21 20 20 20 18 17 17 16 16 15 12 8 6 5 4 3 3 3 6 5 7 10 9 3 9 9 7 7 12 12 13 14 14 15 16 14 14 16 17
30 25 25 25 25 27 29 31 33 34 35 36 37 39 40 41 43 43 42 40 38 37 36 36 34 34 32 29 27 28 29 29 28 28 28 25 25 26 26 26 26 25 24 22 21 20 20 20 20 18 18 17 15 15 14 13 11 8 5 3 4 6 7 7 6 7 9 5 4 4 9 9 7 6 12 13 13 14 14 15 16 15 15 15 16
27 24 25 26 25 29 30 32 33 34 36 37 39 41 41 42 43 42 41 39 38 37 36 35 35 34 32 28 26 27 29 29 29 29 28 26 25 24 25 26 26 24 22 21 20 20 19 19 18 17 17 16 15 14 13 12 10 8 7 6 7 6 5 5 5 6 7 7 6 5 9 9 8 7 12 13 13 14 16 17 16 16 16 16 15
27 26 27 27 28 33 32 33 34 36 37 38 40 40 41 42 42 41 40 38 38 37 37 36 35 34 31 28 27 28 29 30 30 30 28 28 27 23 25 25 24 23 20 19 19 17 19 18 17 17 16 14 14 13 11 11 11 9 7 6 5 6 8 9 10 10 7 4 12 7 9 9 9 8 11 14 15 15 15 15 15 17 16 16 15
28 28 28 28 28 31 33 34 34 37 38 39 40 40 41 42 42 41 39 38 37 37 36 36 35 33 31 29 28 29 30 31 30 31 30 29 27 24 25 23 24 22 21 20 19 19 18 18 17 16 14 13 12 10 9 9 10 9 7 6 5 6 7 9 10 11 2 9 11 13 10 12 nan 9 12 15 17 18 18 18 13 14 13 17 16
30 29 30 29 32 31 33 34 36 37 38 40 41 41 42 42 43 41 39 39 38 37 36 36 35 33 31 29 28 29 31 31 31 32 32 30 28 27 26 23 21 21 21 20 19 19 19 19 17 15 12 11 10 8 8 8 9 9 7 5 3 4 6 7 9 6 nan 10 10 10 13 16 nan nan 15 15 17 18 18 16 16 16 17 16 15
33 29 31 30 33 31 33 34 36 38 40 41 42 43 42 41 42 41 39 38 38 37 35 34 34 32 31 28 28 29 29 32 33 33 33 31 29 27 25 24 21 21 21 20 19 20 21 19 16 14 12 11 9 9 8 7 7 8 6 4 1 4 7 7 5 6 12 12 nan nan nan nan nan 13 17 16 16 16 16 16 16 17 16 17 16
35 33 32 32 29 31 32 34 36 38 40 40 42 43 41 41 42 40 39 38 36 35 34 34 32 31 29 28 28 29 30 32 32 32 33 32 30 28 25 23 22 22 21 21 22 21 20 19 16 14 12 11 11 11 10 8 7 6 6 4 1 2 5 8 6 5 13 13 12 13 12 9 10 16 16 17 17 17 16 17 17 18 18 17 17
34 36 32 31 29 33 33 35 36 38 39 39 40 41 41 41 41 39 38 38 35 33 34 33 31 30 28 27 28 30 33 34 33 34 35 34 32 28 25 23 23 23 22 22 22 21 20 19 17 15 13 13 12 13 12 10 9 9 8 6 3 3 5 7 9 10 14 15 12 14 13 10 12 15 17 17 17 16 16 16 18 18 18 17 16
33 33 33 32 31 32 37 36 37 38 38 39 40 40 41 40 39 38 37 36 35 34 34 34 32 31 28 26 29 32 34 35 33 34 34 33 32 29 27 26 25 24 24 23 22 22 20 20 19 16 15 14 14 14 13 12 13 10 7 7 5 5 6 4 2 15 15 14 14 16 nan 13 13 14 18 17 16 16 16 17 18 17 18 18 19
31 34 36 35 34 34 34 38 39 39 39 39 39 40 39 39 38 37 36 35 35 35 35 33 32 30 27 26 30 31 33 33 33 33 32 32 31 30 28 27 26 25 24 22 22 22 20 20 19 17 16 15 15 14 12 14 14 11 8 8 9 6 6 5 7 16 14 15 15 nan nan 13 17 15 18 18 17 16 16 16 17 17 17 17 17
32 36 37 39 38 35 36 36 39 41 40 39 39 39 38 38 36 35 35 35 35 35 34 33 31 29 27 28 30 31 31 32 32 32 32 31 32 31 29 28 27 26 25 22 22 21 20 20 20 18 17 16 15 14 11 13 15 13 11 9 8 6 6 4 7 14 14 16 16 14 nan 12 15 16 18 18 18 17 16 16 16 17 16 17 18
34 36 37 39 37 38 37 39 40 38 38 39 39 37 36 35 34 33 34 34 35 34 33 31 29 29 27 28 30 31 31 32 31 30 31 30 30 30 30 28 27 27 24 22 21 21 20 20 20 19 17 16 15 14 11 12 14 13 8 7 6 6 3 1 9 15 17 17 16 14 nan 15 17 17 18 18 18 17 17 16 16 16 16 16 17
34 37 37 38 38 39 40 39 38 38 38 35 33 34 34 33 32 32 33 33 33 33 32 30 30 29 28 29 30 32 32 31 31 29 29 30 30 31 30 29 28 27 24 22 22 21 20 20 19 18 17 17 16 14 11 13 15 11 6 5 4 2 3 4 12 18 17 15 15 14 13 17 17 18 18 18 18 19 17 16 15 16 16 16 16
33 35 35 37 39 40 39 38 39 40 39 36 35 32 31 32 31 31 32 33 33 32 31 30 30 29 28 30 30 30 30 29 31 29 30 29 29 27 30 30 28 28 25 23 22 20 20 20 19 17 17 17 17 16 12 12 14 12 6 4 3 4 6 11 20 20 17 16 17 14 17 17 17 17 18 18 17 17 16 nan 16 16 16 16 15
32 33 34 35 38 38 40 36 38 39 39 38 35 32 31 32 29 30 31 31 31 30 29 31 29 28 28 28 28 27 26 26 27 26 30 27 26 29 30 30 29 29 27 24 22 20 19 19 18 16 16 17 17 17 13 12 12 11 7 4 1 5 8 15 19 19 18 16 17 17 22 20 19 19 19 18 18 18 nan nan 16 16 nan 15 15
32 30 34 36 35 32 31 34 34 38 38 32 32 32 30 28 27 27 27 28 29 28 28 27 27 25 26 26 24 24 26 26 26 28 25 27 28 29 28 29 28 28 26 24 22 19 18 18 16 14 14 14 15 12 11 12 11 9 7 5 7 9 10 17 19 19 18 16 16 19 23 20 18 20 19 19 19 19 18 18 18 nan nan nan nan
32 32 34 36 32 31 28 31 30 30 35 32 32 32 30 27 26 24 25 27 26 26 26 26 25 24 24 23 22 24 24 26 27 27 26 28 28 29 29 29 28 26 25 23 21 18 16 16 14 13 11 10 10 9 12 14 12 9 8 9 12 11 11 13 17 18 17 15 16 21 21 21 21 21 20 19 18 19 18 18 nan 18 18 16 nan
34 34 33 33 33 33 33 34 34 31 29 28 33 33 30 26 24 21 22 24 24 24 25 24 24 23 22 23 24 23 23 25 29 30 31 27 26 26 27 28 27 24 22 21 19 17 16 13 11 9 9 7 7 8 13 15 14 14 14 13 13 13 10 10 15 18 17 18 19 21 22 22 20 21 22 20 20 18 19 19 19 18 nan nan nan
34 35 33 34 36 37 36 36 34 31 30 29 31 33 32 28 25 23 20 21 23 24 25 26 24 24 23 24 24 24 21 25 26 27 26 25 23 21 20 20 19 18 19 17 17 18 16 14 11 7 5 6 6 12 10 17 18 19 17 14 11 14 11 10 15 16 16 16 18 20 22 22 21 21 22 21 20 19 20 19 nan nan nan nan nan
34 35 36 37 38 38 38 36 34 29 28 30 29 31 33 30 28 25 20 21 24 26 27 29 26 24 23 25 25 23 23 24 26 25 22 20 20 18 16 16 15 15 15 16 16 16 15 13 13 9 4 5 7 10 13 16 21 19 14 14 14 18 14 8 18 19 18 17 19 23 21 22 21 21 21 21 19 19 19 19 nan nan nan nan nan
34 36 38 39 39 39 40 39 35 29 28 27 27 29 29 30 29 25 22 23 27 27 28 28 25 25 25 26 24 23 23 23 22 20 17 15 16 15 12 12 13 13 13 15 16 19 14 12 13 10 7 8 10 11 14 16 17 16 14 15 18 11 14 13 17 20 19 18 19 21 20 20 20 21 21 21 20 19 19 18 nan nan nan nan nan
35 39 39 40 39 42 43 43 39 32 27 26 28 28 29 29 27 25 26 25 28 26 27 28 25 25 27 26 24 23 23 22 18 16 15 12 12 11 11 10 11 11 12 11 17 17 14 15 12 10 9 10 12 15 14 15 16 11 16 22 15 10 11 10 15 21 19 18 17 19 21 20 20 20 20 21 20 20 19 18 18 nan nan nan nan
39 40 40 41 41 42 44 43 42 35 30 29 27 28 28 27 29 30 27 26 25 25 27 28 26 27 28 26 23 23 22 19 16 14 14 11 8 9 9 10 9 10 12 11 17 18 14 15 13 11 11 11 13 14 15 12 13 16 20 24 13 12 13 12 17 21 18 18 18 20 22 21 20 19 19 19 19 19 19 19 nan 17 nan nan nan
39 38 41 41 41 43 43 43 42 36 32 30 27 27 26 27 30 29 28 28 28 28 30 28 28 28 27 25 23 21 19 17 16 16 13 9 7 8 10 10 9 9 13 14 15 15 14 15 15 13 12 13 12 12 13 9 10 14 24 20 13 12 14 11 14 17 16 17 19 19 22 20 20 18 17 17 17 17 18 18 19 nan nan nan nan
39 38 40 41 41 43 41 42 40 36 32 33 29 26 26 28 30 29 31 33 32 30 28 29 29 27 26 23 22 20 18 16 17 15 15 11 7 9 9 11 11 13 13 14 16 13 15 12 13 13 12 11 12 10 8 9 11 21 22 19 13 10 16 12 13 17 15 18 18 17 18 21 20 17 15 14 15 16 17 19 nan nan nan nan nan
39 37 38 41 43 42 41 40 39 35 32 34 33 30 32 33 35 33 34 34 32 29 29 28 27 26 25 21 19 19 16 15 15 11 12 14 7 8 12 13 13 14 13 15 13 12 13 11 13 10 9 10 10 8 7 11 14 23 21 18 13 12 13 11 12 11 16 17 16 16 16 16 18 16 15 12 12 14 16 18 19 19 18 17 nan
35 38 40 41 43 40 38 38 36 33 31 32 33 34 35 38 37 35 34 31 30 29 29 28 25 25 24 19 15 15 15 15 11 11 13 11 1 13 13 14 13 13 13 11 11 11 12 9 9 9 7 9 9 6 9 11 16 22 20 14 14 15 13 11 11 10 15 16 15 15 15 14 14 13 11 11 9 11 14 16 17 17 17 17 16
35 38 40 41 40 36 30 30 28 27 29 28 28 30 34 37 34 32 31 29 29 30 29 27 23 22 21 17 13 13 14 12 11 18 19 14 14 10 13 14 8 12 8 8 8 10 8 8 7 8 6 8 9 8 10 11 19 21 19 15 9 13 13 13 13 12 12 14 14 14 13 12 10 7 6 8 8 9 11 13 13 13 14 15 15
33 36 38 39 38 32 24 19 19 24 25 23 27 24 26 29 28 26 26 27 29 30 29 25 20 18 17 14 12 13 12 11 14 22 18 7 7 7 11 11 8 10 5 6 7 8 7 7 8 8 9 10 8 10 9 12 16 23 20 13 9 13 12 13 12 11 11 11 12 11 10 10 7 4 5 6 7 6 6 9 9 9 10 11 12
32 36 36 35 32 26 23 14 19 24 23 26 25 25 18 20 19 21 23 27 30 30 29 24 19 17 14 13 11 13 14 13 13 16 9 5 8 9 11 9 7 9 6 6 6 7 6 8 7 10 9 10 7 9 8 13 18 20 15 11 11 11 12 11 10 10 11 12 11 10 9 8 6 4 4 7 5 6 8 6 7 7 7 8 10
32 36 34 29 29 26 22 16 20 23 27 27 25 18 16 16 17 20 23 29 30 29 28 24 19 17 15 13 12 14 15 14 8 12 5 7 9 12 11 9 9 9 6 4 6 7 7 9 8 9 10 10 10 8 10 12 17 19 18 11 9 10 11 8 10 10 10 10 10 9 8 8 5 6 3 5 7 7 7 7 6 5 5 5 7
32 34 33 28 26 24 20 17 20 20 22 25 20 13 15 16 17 20 23 27 29 28 26 24 21 19 17 14 12 17 16 7 11 11 5 8 10 12 14 8 7 10 6 5 7 9 8 10 9 8 10 10 10 10 12 14 18 16 15 13 13 10 11 9 10 10 10 10 10 9 9 9 7 4 3 4 7 7 5 5 6 5 4 5 7
30 35 33 27 22 18 14 15 17 15 13 15 15 13 15 15 17 20 21 24 25 26 25 23 20 19 16 14 14 17 13 11 14 10 6 8 11 13 15 9 7 10 10 6 8 9 10 10 8 8 9 10 10 12 13 16 18 17 14 11 13 11 9 10 10 10 10 10 10 10 9 7 6 4 4 6 5 6 5 5 6 6 5 5 8
31 36 34 25 18 17 13 11 13 11 10 12 10 11 15 18 18 19 20 22 24 25 24 24 21 19 17 16 16 17 12 14 14 11 5 10 12 12 14 10 11 13 10 11 6 10 10 9 8 6 8 10 10 11 11 16 18 19 14 16 14 8 11 11 10 11 9 10 11 9 7 7 6 5 5 6 3 2 3 4 4 5 5 5 8
31 37 34 25 17 17 13 12 12 12 11 11 10 12 15 14 14 15 19 22 25 25 26 24 20 18 16 16 16 17 9 13 14 12 7 10 12 12 13 11 12 13 10 11 9 10 10 9 7 7 8 9 10 10 11 15 17 15 13 15 15 12 11 12 12 12 11 11 10 8 6 7 7 5 6 5 3 4 3 2 3 2 5 6 7
30 33 32 24 17 16 14 13 14 11 10 13 15 13 13 17 17 19 21 25 23 24 24 21 21 18 15 16 19 18 9 10 14 9 6 13 11 11 11 11 13 15 9 11 12 11 9 8 7 9 9 11 11 12 12 12 13 12 13 12 14 13 12 12 12 11 12 13 9 7 9 10 9 7 8 7 2 4 4 3 3 3 4 5 6
28 28 26 20 16 18 17 17 18 17 16 16 17 18 20 23 27 23 20 25 23 21 19 16 18 17 16 17 18 19 13 12 11 6 8 9 11 12 11 12 12 13 11 12 13 12 9 9 9 9 10 11 11 13 12 10 13 12 12 14 12 14 13 12 10 12 13 14 9 8 10 12 9 7 9 10 7 7 6 6 5 6 6 5 5
25 22 19 14 15 18 21 23 21 21 19 19 20 23 27 32 27 21 24 26 23 24 25 16 16 17 18 17 16 21 17 16 11 6 11 8 6 13 10 14 11 13 13 12 12 12 10 10 9 10 10 11 10 10 10 11 12 13 13 12 12 12 15 14 13 12 13 11 9 9 12 11 9 8 8 8 10 9 8 7 9 8 9 7 5
21 18 17 14 18 23 27 22 21 21 22 21 24 26 29 30 28 27 28 26 24 24 22 21 17 16 18 17 16 16 15 17 17 11 10 12 10 13 13 14 14 12 13 13 13 12 10 10 10 10 9 11 14 10 11 11 12 13 16 15 14 12 12 15 16 15 14 11 8 8 10 10 7 9 8 7 9 11 8 9 10 12 12 11 10
20 22 20 23 27 30 29 24 19 18 20 23 26 26 25 24 23 25 26 25 22 23 20 23 14 15 15 17 17 14 12 12 12 15 14 16 14 12 13 14 14 13 13 13 12 12 11 11 10 9 12 14 13 13 12 12 13 16 15 14 13 15 15 15 14 16 14 12 11 9 10 9 7 8 12 10 11 13 12 12 12 14 14 14 13
23 24 29 36 36 33 26 17 14 19 22 24 25 25 23 22 21 23 26 28 24 19 23 23 18 17 17 17 16 16 13 13 10 14 16 16 14 12 12 13 15 14 14 13 12 11 12 10 11 11 12 15 14 13 14 14 14 14 16 15 16 13 14 17 15 17 16 13 13 10 11 13 13 13 14 13 13 12 12 12 13 16 13 13 14
26 28 38 39 35 27 16 11 14 20 22 24 23 22 24 23 23 23 24 26 25 20 21 23 23 19 18 15 16 14 15 12 11 14 15 15 12 14 12 12 14 14 14 14 14 12 11 11 12 14 15 15 14 14 16 14 14 16 16 15 14 14 15 18 16 13 17 17 14 10 12 12 13 11 12 13 13 13 12 11 13 17 15 13 13
33 44 45 39 30 22 18 16 19 21 24 24 25 23 23 23 26 25 23 22 25 22 20 23 22 18 17 16 16 16 14 13 14 12 12 13 13 12 13 13 14 14 14 16 15 13 16 14 14 15 16 16 17 16 16 15 16 16 15 14 16 16 15 16 14 11 14 15 15 14 13 14 12 11 12 13 13 12 12 12 15 17 14 14 nan
55 52 41 34 27 24 22 21 20 21 22 23 23 24 24 25 25 22 25 25 25 22 20 24 20 18 17 16 17 18 19 17 15 12 11 13 13 13 13 15 14 13 17 15 15 16 17 15 14 15 17 17 16 15 16 16 15 15 13 16 15 17 16 14 12 13 14 12 15 15 15 14 13 11 11 13 13 12 12 13 nan 16 14 nan nan
50 49 34 29 26 26 25 20 20 23 23 22 23 25 25 25 23 20 23 26 26 24 22 23 20 17 17 18 20 22 21 18 15 13 12 15 15 14 14 15 14 14 14 16 15 16 16 15 15 16 16 18 15 15 15 15 14 14 15 16 17 17 17 14 14 12 12 13 14 13 13 13 15 14 11 14 16 14 14 17 nan 16 nan nan nan
Wind_Direction
287 286 285 287 286 288 291 291 292 292 290 293 295 297 298 299 301 302 302 303 304 305 308 309 309 309 308 307 306 306 304 305 304 303 303 301 301 300 301 304 304 305 303 301 300 303 305 306 307 305 301 297 295 290 285 283 281 282 284 281 280 277 273 274 275 275 273 272 265 258 254 247 246 248 244 238 237 235 237 265 267 256 268 265 260
290 282 282 286 284 289 291 291 291 291 291 292 294 296 297 298 300 301 301 302 303 305 308 308 309 309 308 308 307 307 306 308 307 306 304 303 303 303 302 305 307 303 304 304 305 303 301 303 303 302 301 301 300 292 290 285 284 285 288 287 283 282 281 284 284 282 276 271 267 262 258 256 248 247 246 243 240 237 238 241 251 257 273 260 264
286 284 282 285 286 288 291 291 290 291 291 292 294 295 296 298 299 300 300 301 303 306 307 308 309 308 308 308 309 309 309 309 309 306 305 306 306 305 304 305 308 306 305 305 306 303 305 306 304 302 300 301 301 298 294 293 287 291 297 293 284 285 284 287 290 293 295 288 278 269 257 248 247 250 251 249 248 249 249 256 258 256 264 255 255
289 286 284 288 287 289 290 289 289 291 293 293 293 294 295 296 297 299 300 301 303 305 307 309 309 308 308 309 310 310 310 310 309 308 309 309 308 307 308 309 306 307 305 306 310 309 305 301 300 298 297 297 300 297 294 293 289 289 292 292 289 283 286 291 308 314 315 313 307 285 265 238 233 244 248 250 252 252 254 254 255 256 261 256 254
288 287 286 291 289 288 288 288 289 291 292 292 292 293 293 295 296 297 299 300 302 304 307 307 307 307 308 309 310 310 309 310 309 311 310 307 308 307 309 310 306 305 308 309 311 309 305 303 298 295 294 295 301 301 294 291 292 296 295 292 289 287 288 313 325 351 346 353 306 290 274 256 238 240 244 250 253 251 254 258 256 254 256 259 255
288 286 287 288 291 289 287 288 290 291 292 291 293 292 292 293 295 297 298 299 300 303 305 305 306 306 308 309 308 309 309 308 307 308 308 306 308 308 310 311 307 306 307 313 312 311 308 302 298 293 292 294 297 301 293 291 297 304 301 306 314 326 353 16 11 24 58 59 95 144 274 264 248 231 243 246 251 254 256 255 255 251 252 255 253
291 289 286 286 286 288 287 288 289 290 291 290 290 291 291 293 295 297 298 298 299 302 303 304 305 305 308 307 307 306 305 305 301 301 301 304 307 310 313 311 308 306 310 315 315 312 309 308 301 295 291 292 295 294 295 296 304 318 323 333 8 45 21 36 48 32 44 68 89 70 279 272 255 237 243 250 255 254 251 254 256 256 257 254 257
291 289 285 282 284 287 286 287 288 289 289 289 290 290 291 293 295 296 296 297 299 300 302 303 304 306 307 306 305 305 304 303 301 301 301 304 306 311 313 310 307 308 312 314 314 311 309 310 305 299 294 290 295 300 301 307 315 332 351 26 49 61 79 98 88 98 76 85 51 295 262 266 259 252 249 247 249 255 254 248 246 250 247 252 256
294 290 282 279 282 286 284 286 287 288 287 288 288 289 290 293 295 296 296 297 298 300 302 303 304 306 308 306 306 306 305 304 303 304 304 305 311 311 308 309 307 308 313 311 312 312 309 308 309 301 294 294 295 300 306 319 326 342 10 42 83 121 132 136 147 138 79 272 227 254 279 281 281 272 258 256 254 253 255 255 251 248 250 252 254
295 286 280 276 282 281 283 284 285 286 286 286 287 288 290 292 294 296 295 297 298 299 301 303 304 307 309 308 308 308 307 307 307 306 306 309 310 308 305 307 309 311 313 313 313 311 310 312 306 297 287 292 296 298 310 321 339 343 10 36 94 119 143 146 145 127 306 265 256 251 255 262 nan 270 267 261 254 251 249 248 251 252 250 251 252
294 288 279 278 284 281 281 282 283 284 284 284 287 289 292 293 296 297 296 297 298 301 302 303 305 307 310 310 310 310 309 308 308 307 308 310 308 307 307 309 311 311 308 309 310 310 306 297 295 287 280 293 302 308 326 327 341 356 1 9 96 126 139 139 142 86 nan 281 289 287 273 268 nan nan 272 265 257 253 249 253 252 251 250 248 248
285 277 275 274 282 278 279 280 281 283 285 286 289 291 292 293 295 295 297 298 300 302 303 303 304 306 308 309 309 309 310 310 306 307 310 309 308 308 309 312 312 305 303 305 305 299 296 294 292 287 284 291 303 316 325 343 351 358 2 343 34 120 143 141 113 71 290 279 nan nan nan nan nan 269 267 268 262 259 258 256 255 254 250 248 250
281 272 269 275 282 275 276 277 278 281 284 285 289 291 290 291 293 295 297 297 299 301 301 299 300 301 305 307 305 306 309 307 303 306 307 307 307 306 308 309 304 303 305 302 300 296 293 294 294 288 283 290 300 317 333 339 2 1 356 355 50 128 118 120 78 42 287 295 299 290 289 287 277 273 274 270 269 264 261 259 254 251 249 248 249
273 270 272 278 277 280 274 275 277 280 282 284 285 287 289 290 292 291 293 297 299 298 296 296 296 298 301 302 304 303 305 305 304 304 303 305 305 306 304 306 303 301 302 300 296 294 297 298 295 287 283 288 300 314 329 349 354 356 356 3 35 88 98 76 65 321 299 293 293 289 291 290 287 276 274 270 270 271 267 260 254 253 253 252 252
270 276 277 279 282 281 279 273 275 275 278 280 283 284 286 287 287 289 292 295 294 291 290 289 289 292 295 298 297 299 303 302 301 301 303 304 304 304 307 305 301 301 301 297 297 296 295 295 293 287 286 289 295 306 323 335 344 345 351 19 44 78 95 63 27 292 301 304 303 295 nan 289 274 276 275 276 276 273 266 263 261 259 257 256 247
275 281 285 285 286 283 280 278 273 274 275 277 278 280 282 284 286 288 291 291 288 287 288 289 290 291 292 293 295 299 301 298 297 300 302 304 303 302 304 302 300 301 300 298 297 295 296 295 294 293 287 289 295 301 309 327 344 356 8 34 45 67 83 53 29 309 308 306 300 nan nan 294 297 296 280 273 275 276 276 271 269 265 263 257 255
290 291 290 291 290 285 281 277 273 272 272 273 274 276 278 282 284 286 286 285 285 285 288 291 289 290 289 290 294 297 297 295 298 301 303 305 303 303 302 302 302 302 300 301 297 295 298 297 296 297 293 292 295 297 310 330 355 16 22 43 58 70 84 72 336 301 304 303 298 294 nan 292 281 277 281 283 277 275 275 275 273 271 266 265 263
288 289 288 288 286 282 280 276 274 275 272 272 272 275 276 278 280 281 281 282 282 284 285 286 285 286 284 287 292 295 294 295 298 301 303 302 301 301 299 300 301 299 302 299 297 296 296 294 294 297 296 296 298 297 314 332 351 13 29 42 56 75 101 114 321 296 295 294 294 291 nan 296 292 288 285 284 284 281 276 277 275 274 272 268 266
281 281 281 282 283 280 277 277 277 275 273 269 271 273 276 276 277 277 279 280 281 281 283 282 282 282 285 289 294 295 296 296 299 302 301 300 300 299 298 299 301 301 301 298 297 296 295 296 297 298 299 302 300 299 312 323 337 352 15 38 59 86 102 6 319 294 293 298 300 303 307 308 298 293 289 284 281 279 278 276 279 276 273 272 270
276 280 283 286 287 286 285 285 283 279 275 275 274 277 276 274 275 278 278 277 277 277 280 279 281 282 287 290 293 294 296 299 304 304 302 301 300 297 299 301 304 302 301 299 296 297 296 297 299 301 301 302 304 300 308 319 323 334 354 17 21 67 2 337 294 298 302 302 302 307 303 294 289 291 290 287 284 280 279 nan 273 274 276 273 271
273 284 292 288 282 293 296 290 289 287 285 282 279 276 278 279 274 275 276 275 275 278 279 279 277 281 287 291 291 293 294 296 301 301 303 298 298 296 300 301 301 301 302 300 297 298 295 296 302 303 304 307 310 311 312 317 322 324 332 337 356 349 5 313 301 301 305 305 307 309 306 307 304 298 290 288 285 281 nan nan 275 273 nan 272 273
286 284 283 281 290 293 294 295 294 301 303 299 283 274 273 275 270 270 270 271 274 277 275 272 277 276 287 289 289 291 292 296 300 301 296 296 295 298 299 299 300 300 300 297 295 294 294 295 298 304 306 311 316 313 308 316 317 319 323 326 331 345 337 307 308 300 302 307 309 309 308 309 305 297 292 287 287 289 283 276 275 nan nan nan nan
292 283 280 289 291 299 293 287 288 302 314 308 290 280 276 266 267 268 268 272 277 275 268 270 270 277 283 288 287 284 289 294 295 299 294 297 295 299 300 301 299 299 294 292 290 290 291 292 297 305 310 321 321 322 311 302 303 318 320 318 324 341 322 310 294 299 302 311 309 314 314 308 303 298 295 288 281 280 283 281 nan 273 271 269 nan
290 287 291 295 299 299 302 300 305 309 308 307 298 293 288 277 272 274 269 271 272 267 267 268 268 276 282 278 271 277 279 289 301 305 296 289 290 294 299 300 300 298 294 286 286 289 290 287 296 304 310 316 320 328 306 294 301 302 310 318 326 311 307 301 299 294 305 308 312 313 307 304 299 296 296 295 292 288 280 275 275 276 nan nan nan
290 292 291 297 301 298 300 304 308 311 311 311 308 301 297 289 286 288 280 272 267 262 263 264 264 268 273 272 275 275 279 285 288 285 285 284 286 288 290 290 288 286 294 282 285 291 290 291 288 284 304 309 309 288 291 297 303 308 313 318 305 294 277 283 276 287 297 300 311 311 303 301 301 298 294 294 289 285 279 275 nan nan nan nan nan
290 292 292 293 295 298 304 307 310 315 312 316 316 303 294 288 287 288 287 274 267 261 261 262 265 271 270 271 270 273 275 281 287 286 281 285 289 289 290 284 288 287 292 289 291 288 291 296 299 301 304 316 285 278 288 296 301 299 306 294 291 277 299 279 273 284 294 299 299 301 302 303 303 296 289 288 290 283 281 280 nan nan nan nan nan
287 290 291 291 295 299 304 307 308 310 311 313 310 302 291 284 279 284 285 277 264 264 269 272 272 273 270 270 270 273 275 273 282 278 281 285 292 290 289 286 284 290 298 292 297 292 298 300 293 295 293 294 298 297 295 297 301 298 300 296 261 301 306 280 285 291 296 296 298 298 301 301 298 294 292 293 291 286 285 282 nan nan nan nan nan
290 289 291 296 298 302 304 308 306 304 304 301 307 304 291 284 279 276 275 272 269 271 277 276 275 272 272 270 270 272 271 271 261 264 271 284 288 296 289 293 294 293 299 294 291 293 300 285 284 285 291 298 306 298 298 299 298 298 283 264 276 291 283 279 289 296 298 299 299 303 302 302 298 295 295 292 289 290 289 288 284 nan nan nan nan
287 289 290 295 299 300 304 307 305 303 297 296 303 302 294 283 275 272 274 280 272 276 279 279 276 273 273 276 276 273 270 264 256 235 265 278 288 299 300 295 289 291 297 295 285 285 288 285 288 287 293 289 278 295 300 291 291 285 281 273 284 286 281 291 289 294 304 306 304 306 305 304 300 296 291 289 289 289 288 287 nan 278 nan nan nan
287 290 291 293 297 299 305 308 308 304 298 292 292 293 289 280 274 271 270 280 279 277 276 274 274 276 278 283 277 274 270 263 240 220 237 246 262 280 279 280 277 262 266 264 270 280 288 292 290 296 290 281 287 273 273 278 291 284 279 298 296 296 292 277 287 296 307 305 302 306 307 303 301 296 292 293 293 288 286 286 284 nan nan nan nan
284 289 290 293 295 297 304 308 309 309 299 293 288 282 279 272 267 270 271 281 282 275 275 274 275 279 281 281 279 271 266 255 234 223 239 219 216 301 302 296 286 270 275 273 278 282 275 272 278 280 282 295 281 271 280 280 281 263 280 288 307 298 276 290 293 297 304 302 303 307 307 309 304 297 291 290 291 288 286 284 nan nan nan nan nan
289 291 289 291 294 299 301 305 309 308 299 292 290 286 278 270 265 267 273 279 278 273 274 273 276 280 282 278 274 273 264 252 234 231 241 216 183 295 287 274 267 267 267 266 270 271 276 273 269 278 277 280 284 292 302 288 279 283 283 290 304 292 289 302 296 303 308 306 307 307 308 303 304 303 294 285 283 286 285 285 285 285 285 281 nan
292 292 290 294 295 298 304 309 308 305 300 296 290 283 273 268 264 262 268 273 269 270 273 272 275 277 276 277 273 273 263 246 228 236 233 217 232 290 282 274 269 265 266 278 276 267 262 278 285 276 287 280 286 297 287 281 269 277 287 294 311 306 299 300 292 303 307 312 315 315 311 311 307 297 290 286 280 293 293 287 283 278 277 278 279
293 292 295 298 297 303 311 316 314 311 305 298 293 285 273 264 260 258 263 265 264 269 269 268 273 273 274 274 271 264 252 237 217 216 221 205 216 233 260 258 260 236 228 278 287 274 281 280 284 276 278 280 279 270 269 276 274 275 278 286 288 285 299 297 296 304 308 315 322 319 318 311 307 304 290 296 289 305 310 301 288 279 273 277 280
291 295 298 294 298 313 328 326 315 308 301 303 299 283 264 258 254 255 260 264 265 268 268 268 275 269 261 260 257 255 242 239 228 221 216 255 267 288 294 289 292 298 308 280 269 275 276 283 288 290 281 268 255 269 260 261 267 278 282 287 303 295 294 293 303 309 309 317 314 312 309 306 296 280 294 303 301 302 315 319 308 285 274 279 286
291 294 293 300 307 325 342 326 305 292 304 309 287 261 252 257 252 258 262 266 266 267 265 268 271 262 255 253 256 258 251 246 247 235 221 259 278 291 292 286 283 263 249 284 271 277 288 268 264 270 278 267 273 267 268 252 265 275 278 291 290 283 290 297 302 304 315 318 314 312 317 315 307 296 332 314 325 320 312 314 301 301 292 291 288
291 296 299 311 318 329 335 320 302 291 294 297 287 269 265 265 260 260 261 259 261 261 261 265 264 261 257 261 260 264 260 260 253 255 276 294 291 284 284 282 272 261 248 278 298 282 286 275 267 270 262 271 267 280 254 267 258 264 285 296 281 287 285 300 303 310 308 309 309 307 316 323 332 343 341 326 337 342 325 324 323 302 297 293 298
293 295 301 314 321 324 327 319 299 290 288 291 284 266 269 264 257 255 254 256 258 257 257 262 260 258 264 265 264 262 258 267 269 267 277 293 291 283 275 274 266 263 276 294 286 282 280 272 268 253 262 255 252 260 256 253 259 267 271 278 284 286 297 308 311 314 316 310 302 311 317 322 331 337 346 350 330 329 333 322 324 321 318 326 323
291 296 302 309 313 314 317 307 294 293 298 289 273 262 262 254 253 252 248 253 256 252 258 260 263 258 267 270 268 268 284 290 274 264 264 290 282 276 281 276 271 280 294 301 274 280 273 269 263 264 251 260 255 242 254 262 260 265 270 271 267 283 294 310 314 306 301 302 300 303 313 317 326 325 337 335 311 318 324 337 345 352 341 351 345
288 291 299 305 309 304 301 288 275 274 289 285 254 253 260 251 254 252 247 243 247 247 249 255 255 260 261 262 258 262 271 278 276 262 248 292 284 287 285 289 282 277 286 284 296 280 280 275 274 260 257 246 237 247 250 262 269 268 273 266 275 286 287 291 293 294 295 296 295 300 304 312 305 314 315 286 259 258 309 334 342 328 325 324 316
290 289 295 305 308 302 289 280 257 244 243 238 229 239 256 252 241 244 247 244 240 243 243 242 251 248 260 265 269 268 253 268 274 278 297 298 294 288 284 284 289 288 287 286 280 288 283 277 277 245 249 244 248 247 249 258 267 271 271 277 283 281 284 285 286 287 286 278 279 277 282 283 276 268 259 248 274 304 317 339 329 311 317 326 324
291 290 295 307 308 292 282 259 240 235 222 215 211 219 223 218 221 230 240 247 248 239 240 247 250 250 249 250 264 270 260 257 246 249 262 294 289 285 283 281 291 283 294 293 286 283 289 275 264 254 238 239 237 243 246 252 254 271 280 276 275 275 271 275 283 288 282 276 276 279 288 290 282 276 275 278 315 327 321 341 336 320 311 334 331
285 288 298 309 302 285 270 250 237 231 219 209 204 205 209 218 224 227 242 254 255 258 257 241 245 252 246 247 255 257 255 247 258 263 263 260 289 287 288 278 273 276 281 281 292 288 288 278 262 256 252 247 247 242 241 240 268 268 272 283 286 290 283 274 269 272 272 276 288 289 284 283 290 289 294 313 335 311 304 304 306 317 318 317 336
276 285 298 308 279 270 259 247 240 239 238 225 215 215 219 227 234 238 243 246 254 255 257 251 249 249 254 250 252 261 267 273 268 262 273 258 250 289 277 282 280 287 286 286 282 280 270 262 259 247 259 265 256 248 246 250 264 281 268 267 271 277 288 286 279 265 255 256 265 270 278 290 297 290 296 311 306 295 302 318 329 322 315 313 315
280 290 293 272 258 257 257 254 253 251 251 251 243 235 234 236 240 242 245 246 246 253 257 259 252 252 253 254 254 253 263 271 284 303 304 300 305 284 289 287 290 289 289 286 285 282 280 268 258 247 250 249 260 253 248 255 261 255 271 276 273 272 281 281 289 280 274 269 265 268 274 282 281 285 291 309 311 301 326 332 317 310 301 307 306
283 288 279 258 242 240 248 260 268 266 266 259 254 252 253 257 258 257 255 250 258 260 256 265 263 261 260 256 260 264 252 256 284 311 301 291 289 282 284 291 290 291 287 283 279 286 277 268 260 258 252 246 257 261 258 251 260 267 266 267 267 277 282 282 284 283 273 275 287 285 286 294 290 294 307 316 310 315 318 306 305 289 289 296 302
271 278 277 255 240 235 247 267 272 264 261 259 256 258 263 266 270 267 258 262 259 251 255 268 276 268 253 255 265 256 243 246 259 270 268 264 265 273 279 283 287 283 286 283 279 276 274 272 273 261 261 263 258 263 271 271 268 272 274 273 272 270 276 286 278 284 279 281 289 297 296 301 309 303 297 299 302 302 295 297 296 289 292 293 293
256 274 266 259 254 260 268 258 248 256 262 267 267 265 262 267 277 274 266 269 278 272 263 261 262 263 258 260 257 238 230 245 260 259 262 277 273 270 268 272 280 281 283 280 278 276 278 274 271 270 259 268 270 270 276 279 274 271 276 280 281 280 277 268 278 279 282 288 286 287 291 295 275 280 291 304 300 301 302 306 300 290 292 294 290
246 251 253 249 258 274 273 258 253 250 252 261 271 270 265 268 274 274 275 273 272 267 261 260 262 259 258 253 239 228 243 265 260 254 262 268 269 270 263 263 262 268 273 274 277 278 268 265 264 264 267 264 261 260 266 270 263 270 277 281 284 281 277 279 287 282 276 285 287 298 299 293 300 297 299 298 302 303 308 308 296 295 298 296 nan
246 256 253 255 267 274 275 270 270 260 263 268 276 278 273 275 283 286 285 283 276 270 264 265 265 258 253 247 239 245 262 264 261 262 259 258 256 259 262 261 261 262 263 265 271 271 273 273 270 264 266 267 261 259 262 263 265 273 278 278 278 281 272 269 274 276 273 282 296 303 299 295 292 297 304 301 304 308 310 301 nan 296 301 nan nan
253 257 255 250 267 273 276 279 271 266 273 280 281 281 280 284 289 292 292 291 286 280 274 268 263 259 256 254 253 256 261 264 270 265 252 251 254 251 254 261 262 267 268 264 255 258 266 265 266 266 262 265 264 260 261 266 270 276 273 270 269 274 283 282 288 288 291 292 289 291 295 290 291 299 309 308 306 309 300 293 nan 306 nan nan nan